Location: Chircca
(13.7944°S, 72.0608°W)
Time: 06:25:50
(UTC+00:00)

SJ 16-02 - Pass Details

Date: 14 July 2020
Orbit: 606 x 616 km, 75.0° (Epoch: 14 August)

Event Time Altitude Azimuth Distance (km) Brightness Sun altitude
Rises 09:47:13 0° 175° (S) 2,885 4.7 -20.4°
Reaches altitude 10° 09:49:45 10° 162° (SSE) 1,976 3.9 -19.8°
Maximum altitude 09:53:29 27° 104° (ESE) 1,199 3.4 -18.9°
Drops below altitude 10° 09:57:11 10° 47° (NE) 1,966 4.9 -18.1°
Sets 09:59:41 0° 34° (NE) 2,866 5.7 -17.5°
